STARLINK-1057 (44762 NORAD) Tracking and Keplerian Element Data

This shows tracking and keplerian element data for the satellite.

Feedback or suggestion? Click here.




ElementValue
Catalog44762
NameSTARLINK-1057
Epoch Orbit1064
Epoch Day18.25002315
Epoch Year2020
RAAN195.8303
Inclination53.0074
Eccentricity0.0001381
Argument of Perigee84.1804
Mean Anonmoly215.7182
Mean Motion15.42868403
Decay Rate-0.0010088
L11 44762U 19074BB 20018.25002315 -.00100880 00000-0 -22839-2 0 9998
L22 44762 53.0074 195.8303 0001381 84.1804 215.7182 15.42868403 10649

Live tracking and technical data element details for STARLINK-1057 (NORAD 44762). STARLINK-1057 can be tracked NOW for your location showing map with azimuth and elevation plus other details from your city location.

Track the satellite on the map from your city or location and see movement details for azimuth, elevation, latitude, longitude, range, height, and movement on the map or in text.







IsCatalogInMostPopularTable: catalog: 44762, numindb: 14
Update: records affected: 1



GetName: 44762 STARLINK-1057

Hit Count: updated at: Mon, 20 Jan 2020 03:32:53 GMT